Regional Weather Roundup
Issued by NWS Charleston, SC

Current Version | Previous Version | Text Only | Print | Product List | Glossary Off
Versions: 1 2 3 4 5 6 7 8 9 10 11 12 13 14 15 16 17 18 19 20 21 22 23 24 25 26 27 28 29 30 31 32 33 34 35 36 37 38 39 40 41 42 43 44 45 46 47 48 49 50

000
ASUS42 KCHS 311312
RWRCHS
REGIONAL WEATHER ROUNDUP
NATIONAL WEATHER SERVICE CHARLESTON SC
900 AM EDT FRI JUL 31 2015

NOTE: "FAIR" INDICATES FEW OR NO CLOUDS BELOW 12,000 FEET WITH NO
SIGNIFICANT WEATHER AND/OR OBSTRUCTIONS TO VISIBILITY.

NOT ALL STATIONS ARE QUALITY CONTROLLED BY THE NATIONAL
WEATHER SERVICE. USE DATA WITH CAUTION...ESPECIALLY
DEWPOINT OBSERVATIONS.

SCZ027-030-031-034>040-042>050-311400-
...SOUTHEAST SOUTH CAROLINA...

CITY           SKY/WX    TMP DP  RH WIND       PRES   REMARKS
N CHARLESTON   MOSUNNY   82  74  76 NW9       29.92R
WATERFRONT PRK   N/A     83  77  81 NW5       29.88S HX  92
MOUNT PLEASANT   N/A     82  77  83 NW3       29.92R HX  91
JOHNS ISLAND   FAIR      86  77  74 NW9       29.91R HX  97
PINOPOLIS      NOT AVBL
MONCKS CORNER  FAIR      84  73  70 NE5       29.92S HX  91
SUMMERVILLE    PTSUNNY   81  79  94 N5        29.93S
BEAUFORT MCAS  PTSUNNY   83  78  85 S6        29.94R HX  93
BEAUFORT ARPT  FAIR      81  79  94 CALM      29.93R FOG
HILTON HEAD IS RAIN      79  79 100 SW5       29.95R FOG
WALTERBORO     PTSUNNY   82  77  83 NW7       29.94R HX  91
ALLENDALE      FAIR      81  77  89 CALM      29.93S

...SOUTHERN MIDLANDS AND PEE DEE...

CITY           SKY/WX    TMP DP  RH WIND       PRES   REMARKS
GEORGETOWN     NOT AVBL
KINGSTREE      NOT AVBL
ORANGEBURG     MOSUNNY   84  69  60 NE10      29.94R
BARNWELL       FAIR      82  75  78 NE7       29.95R
AIKEN          CLOUDY    81  64  57 NE13      30.00R
MANNING        FAIR      79  72  78 N7        29.94R
COLUMBIA       PTSUNNY   81  68  64 NE7       29.96R
SUMTER         PTSUNNY   82  62  50 NE15      29.93R
FLORENCE       SUNNY     83  66  56 N14       29.94R
MYRTLE BEACH   NOT AVBL
N MYRTLE BEACH MOSUNNY   81  75  82 N8        29.92S

$$

GAZ063-065-086>088-099>101-113>116-118-119-134>141-150-311400-
...SOUTHEAST GEORGIA...

CITY           SKY/WX    TMP DP  RH WIND       PRES   REMARKS
SAVANNAH ARPT  CLOUDY    81  75  82 W8        29.94R
HUNTER AAF     PTSUNNY   80  79  98 SW6       29.92R
FORT STEWART   CLOUDY    80  74  82 SW5       29.93R
STATESBORO     PTSUNNY   81  81 100 SW5       29.95R HX  93
SYLVANIA       MOSUNNY   83  78  84 CALM      29.95R HX  93
CLAXTON        FAIR      81  77  89 CALM      29.94S

...CSRA...CENTRAL AND FAR SOUTHEAST GEORGIA...

CITY           SKY/WX    TMP DP  RH WIND       PRES   REMARKS
THOMSON        SUNNY     83  75  76 NE13G20   30.01R HX  91
AUGUSTA-BUSH   PTSUNNY   81  75  82 NE3       29.95R
AUGUSTA-DANIEL MOSUNNY   83  72  69 NE10      29.97R
SWAINSBORO     FAIR     N/A N/A N/A CALM      29.95S
VIDALIA        MOSUNNY   79  75  89 CALM      29.96R
EASTMAN        FAIR      81  80  96 CALM      29.97S HX  91
HAZLEHURST     FAIR      81  79  94 CALM      29.94S HX  90
ALMA           CLOUDY    77  75  93 SW5       29.95R FOG
WAYCROSS       PTSUNNY   83  80  91 W7        29.96R HX  94
JESUP          FAIR      81  79  94 W3        29.95S
BAXLEY         FAIR      79  77  94 CALM      29.95R
BRUNSWICK      PTSUNNY   81  77  89 SW8       29.96R
SAINT SIMONS   CLOUDY    78  76  93 SW10      29.95R

$$

SCZ027-028-034-036>038-045-046-048>050-GAZ119-141-311400-
...LAKE AND SUPPLEMENTAL COASTAL OBSERVATIONS...

STATION/POSITION TIME  TEMP    WIND        PRES    WAVE   SWELL
                       AIR SEA DIR/SP/G            HT/PER HT/PER/DIR
                 (UTC) (F)     (DEG/KT/KT) (MB)    (FT/S) (FT/S/D)
UPR LAKE MARION  NOT AVBL
WINYAH BAY       1145   78     300/  4     1012.0
LAKE MURRAY      1200   78      20/  2/  5 1013.9R
ACE BASIN NERRS  NOT AVBL
FORT PULASKI     1200   80 86  220/  2/  4 1013.9R
SAPELO ISLAND    1200   80     240/  8     1014.0R

$$

ANZ835-935-AMZ111-154-330-350-352-354-370-450-454-472-311400-
...C-MAN AND BUOY OBSERVATIONS...

STATION/POSITION TIME  TEMP    WIND        PRES    WAVE   SWELL
                       AIR SEA DIR/SP/G            HT/PER HT/PER/DIR
                 (UTC) (F)     (DEG/KT/KT) (MB)    (FT/S) (FT/S/D)
BUOY 41004       1250   80 84  220/ 19/ 23 1012.9R   4/ 5   2/ 8
BUOY 41008       1250   81 83  280/ 12/ 16 1013.7R   2/ 6   2/ 80/ 8
FOLLY BEACH CMAN 1200   81     300/  5/  8 1012.6S
CAPERS NEARSHORE 1208   82     290/  8/ 10 1012.8R
FRIPP NEARSHORE  1200   81     240/ 16/ 19 1012.5R


STATION/POSITION TIME  TEMP    WIND        PRES    WAVE   SWELL
                       AIR SEA DIR/SP/G            HT/PER HT/PER/DIR
                 (UTC) (F)     (DEG/KT/KT) (MB)    (FT/S) (FT/S/D)
5E ST. MARYS GA  1221      83                N/A     2/ 7
FRYING PAN BUOY  1250   84 84  300/ 14/ 16 1012.9R   3/ 8   2/130/ 8
BUOY 41025       1250   82 85  360/ 10/ 12 1011.9R   4/ 9   3/150/ 9
CAPE LOOKOUT NC  1200   81     320/  7/  8 1011.8R
BUOY 41002       1250   83 81  220/ 21/ 25 1014.1F  10/ 8
BUOY 41010       1220   78 84  180/ 19/ 23 1016.4R
ST AUGUSTINE FL  1300   81 81  240/  9/ 11 1015.7R


$$



USA.gov is the U.S. government's official web portal to all federal, state and local government web resources and services.